C/2019 J3 ( ATLAS )

Japanese version
Home page
Updated on June 8, 2019

---------------------------------------------------------------------

* Profile

Discovery Date May 14, 2019
Magnitude 18.7 mag
Discoverer Asteroid Terrestrial-Impact Last Alert System (ATLAS) search program

* Orbital Elements

Epoch 2019 July 16.0 TT = JDT 2458680.5
T 2019 Aug. 2.16131 TT                                  MPCW
q   2.3715736            (2000.0)            P               Q
z  +0.0017550      Peri.   16.65394     -0.18091926     -0.63601828
 +/-0.0055957      Node   270.51260     -0.96603857     -0.02816213
e   0.9958379      Incl.  131.39264     -0.18449307     +0.77115993
From 40 observations 2019 May 14-June 1, mean residual 0".7.

* Magnitudes Graph

        m1 = 12.5 + 5 log d + 10.0 log r

---------------------------------------------------------------------

The orbital elements are published on M.P.E.C. 2019-L24.
The magnitudes graphs are made with Comet for Windows.

---------------------------------------------------------------------

Copyright(C) Seiichi Yoshida (comet@aerith.net). All rights reserved.